sat.trackr.live / text

‹ back to catalog

STARLINK-5373

NORAD 55490 · 2023-015AT

PAYLOAD ACTIVE UNKNOWN

§ Identity

Operator
Country
US
Launch date
2023-02-02
Launch site
AFETR
Launch vehicle
Mass (kg)
RCS (m²)

Purposes: comms

External: N2YO · Heavens-Above · Gunter

§ Orbital elements

Epoch: 2026-05-25T00:44:25.562688Z

Period
94.27 min
Inclination
43.0012°
Eccentricity
0.0001597
Mean motion
15.27578030 rev/d
Perigee alt
482.0 km
Apogee alt
484.2 km
Semi-major
6,861.2 km
B*
2.6015e-5
RAAN
268.3303°
Arg perigee
257.5283°
Mean anomaly
102.5390°
Rev number
18,227

§ Raw data

STARLINK-53731 55490U 23015AT  26145.03085142  .00000454  00000+0  26015-4 0  99952 55490  43.0012 268.3303 0001597 257.5283 102.5390 15.27578030182272

JSON: /api/v1/satellites/55490 · /tle

For live sub-satellite position, see the globe view (requires WebGL).

§ Visibility from observer

Set your observer location to see the next 7 days of passes ≥ 10°. The values pass through the URL so the page stays shareable.

No JS? Fill the form by hand. The geolocation button needs JavaScript.